Regional Weather Roundup
Issued by NWS

Home | Current Version | Previous Version | Graphics & Text | Print | Product List | Glossary On
Versions: 1 2 3 4 5 6 7 8 9 10 11 12 13 14 15 16 17 18 19 20 21 22 23 24 25 26 27 28 29 30 31 32 33 34 35 36 37 38 39 40 41 42 43 44 45 46 47 48 49 50
000
ASUS45 KCYS 010210
RWRWY

WYOMING REGIONAL WEATHER ROUNDUP
NATIONAL WEATHER SERVICE CHEYENNE WY
800 PM MDT SUN AUG 31 2014

NOTE:  "FAIR" INDICATES FEW OR NO CLOUDS BELOW 12,000 FEET
WITH NO SIGNIFICANT WEATHER AND/OR OBSTRUCTIONS TO VISIBILITY.

WYZ001-010300-
YELLOWSTONE NATIONAL PARK

CITY           SKY/WX    TMP DP  RH WIND       PRES   REMARKS
LK YELLOWSTONE   N/A     44  38  79 CALM      30.14S
W YELLOWSTONE  NOT AVBL

$$
WYZ002>013-054>058-071-098>099-010300-
NORTHERN WYOMING

CITY           SKY/WX    TMP DP  RH WIND       PRES   REMARKS
JACKSON        CLEAR     52  45  76 CALM      30.09R
CODY             N/A    N/A N/A N/A MISG        N/A
GREYBULL       CLOUDY    62  48  60 NW8       29.93R
WORLAND        MOCLDY    61  46  57 CALM      29.95R
SHERIDAN       CLOUDY    63  42  46 W10       29.90S
BUFFALO        MOCLDY    55  44  66 W8        29.96S
GILLETTE       PTCLDY    55  50  83 SW8       29.91R
HULETT         FAIR      54  50  87 MISG      29.92
NEWCASTLE      FAIR      54  50  87 W3        29.92

$$
WYZ014>020-022>026-101>103-010300-
CENTRAL WYOMING

CITY           SKY/WX    TMP DP  RH WIND       PRES   REMARKS
BIG PINEY      CLEAR     53  36  52 N12       30.11S
PINEDALE       PTCLDY    50  37  62 N5        30.13S
DUBOIS         MOCLDY    50  34  53 N5        30.09R
LANDER         PTCLDY    62  44  51 CALM      29.97R
RIVERTON       PTCLDY    60  39  45 N5        30.00R
CASPER         PTCLDY    54  46  74 N6        29.99R
DOUGLAS        CLEAR     57  47  69 NW9       29.97R

$$
WYZ021-027>030-104>119-010300-
SOUTHERN WYOMING

CITY           SKY/WX    TMP DP  RH WIND       PRES   REMARKS
EVANSTON       CLEAR     54  27  35 W9        30.14S
KEMMERER       CLEAR     54  32  43 NW9       30.14R
FORT BRIDGER   FAIR      59  29  32 W12G18    30.16R
ROCK SPRINGS   CLEAR     57  33  40 NW10      30.09R
DIXON          FAIR      61  38  43 NW6       30.08R
RAWLINS        CLEAR     59  30  33 W13G21    30.05R
SARATOGA       FAIR      52  37  58 CALM      30.08R
LARAMIE        PTCLDY    56  35  45 NW12      30.06R
CHEYENNE       PTCLDY    64  37  36 NW10      29.99R
TORRINGTON     PTCLDY    57  48  72 N7        29.90R
PINE BLUFFS    FAIR      55  45  67 N7        29.97R

$$



USA.gov is the U.S. government's official web portal to all federal, state and local government web resources and services.